Temp
80 79 79 79 78 78 78 78 79 79 79 79 78 79 79 79 78 78 77 76 76 74 73 73 73 73 73 71 71 70 71 70 70 69 68 67 69 68 67 67 67 67 66 67 67 68 69 69 69 68 68 69 68 68 67 68 68 70 69 68 69 69 69
78 78 78 78 78 78 78 79 79 80 79 80 79 79 80 79 78 77 77 76 76 76 74 74 74 73 73 72 71 70 70 70 71 73 70 70 71 68 68 68 67 67 66 66 66 66 68 68 69 68 68 70 69 68 68 68 68 68 68 68 68 68 68
78 78 78 78 78 78 78 79 79 80 80 80 80 79 79 79 79 78 77 77 76 76 75 74 75 73 73 72 71 70 71 70 70 70 69 69 69 69 68 68 66 67 67 66 67 68 69 68 68 67 68 68 68 68 68 68 68 68 68 68 68 70 69
77 78 78 78 79 79 79 79 79 81 81 81 81 81 80 79 80 79 78 78 76 76 74 75 75 74 73 72 71 70 71 70 71 70 70 69 69 68 68 67 67 67 67 67 69 70 70 69 68 67 71 68 67 68 67 68 68 67 67 67 68 69 68
77 78 78 77 77 77 77 78 79 80 81 82 82 81 81 81 80 79 79 79 78 77 77 76 76 75 74 74 73 72 72 71 70 70 70 70 69 69 69 68 68 67 68 68 68 69 69 68 67 67 67 67 67 66 67 67 67 67 67 67 67 68 68
75 76 76 77 78 78 78 79 80 81 81 81 81 81 81 81 81 80 79 78 78 78 77 76 75 75 73 74 74 73 71 71 71 70 70 70 69 68 69 69 69 68 67 68 70 68 68 67 67 67 67 67 67 67 66 67 67 67 67 67 67 68 68
76 76 77 77 78 77 78 79 80 81 82 82 82 81 81 81 80 80 79 78 78 77 76 76 76 75 74 74 73 73 71 71 71 71 71 70 69 69 69 69 70 68 69 68 68 68 67 67 67 66 67 66 68 67 67 66 67 67 67 67 67 67 67
77 76 76 78 79 79 79 79 80 82 82 81 81 81 80 80 80 80 79 79 79 78 78 77 76 75 74 74 74 73 72 72 72 71 70 70 69 70 69 69 69 69 67 68 69 67 68 67 67 67 67 67 66 66 66 66 66 66 66 66 66 67 69
77 78 78 79 80 80 80 79 80 80 80 80 79 79 79 79 80 79 79 79 78 78 77 78 77 76 74 74 73 73 73 72 71 71 70 70 69 70 70 70 69 69 69 69 69 68 68 68 68 68 67 66 67 66 66 66 66 67 66 66 66 66 66
76 76 76 79 81 81 80 80 80 79 79 79 78 78 78 78 79 79 79 79 78 78 78 78 77 76 74 74 74 74 73 72 72 72 72 71 70 70 71 71 71 70 69 69 68 68 68 68 68 68 67 67 67 66 66 66 67 67 66 66 66 66 67
76 76 76 77 78 79 79 79 78 78 78 77 77 78 78 78 78 78 78 78 78 78 79 78 78 77 75 75 75 74 73 72 72 72 72 72 71 72 72 73 73 71 71 69 68 68 68 68 68 67 67 67 67 67 66 67 67 66 66 66 66 66 66
74 74 75 76 77 78 78 78 78 78 77 77 77 77 77 77 78 78 78 78 79 78 78 78 78 77 76 76 75 73 73 73 73 73 72 72 72 73 73 73 72 71 71 70 70 69 68 68 68 68 67 66 67 67 66 66 66 66 66 65 66 65 65
73 74 75 77 77 78 77 76 77 77 77 78 78 77 77 77 77 77 77 77 79 79 78 77 77 76 76 77 76 73 73 73 73 73 73 73 72 73 73 73 73 72 71 71 71 70 69 68 67 68 67 67 66 66 67 66 66 64 65 65 65 65 65
75 73 74 75 75 76 76 77 77 77 77 77 77 77 77 77 78 77 76 77 78 78 78 78 77 76 76 76 75 73 73 73 72 73 73 73 72 72 72 72 71 71 70 70 69 70 69 69 68 68 67 67 67 68 67 66 64 64 65 65 65 65 64
72 73 73 73 73 74 75 75 76 76 77 77 78 77 77 77 77 77 77 78 77 78 77 78 76 76 76 76 75 73 72 70 72 74 73 73 72 71 71 71 70 70 69 69 70 71 70 70 69 68 67 67 67 67 67 67 66 66 66 65 64 64 64
72 71 72 73 74 74 75 76 76 76 77 77 77 77 77 76 76 76 76 77 77 77 78 77 76 76 76 75 74 72 72 73 73 73 73 72 72 71 71 71 70 70 69 69 70 69 69 68 68 69 69 68 67 67 68 68 67 68 67 67 66 63 64
71 71 71 72 72 73 75 75 76 76 76 76 77 77 77 77 77 77 77 78 78 77 78 78 76 76 76 74 73 74 73 71 72 73 73 72 72 71 71 71 70 69 68 69 69 69 69 69 68 69 69 69 68 68 68 68 68 66 64 63 65 64 62
71 69 70 72 73 73 72 72 72 73 74 76 77 77 77 77 77 77 76 77 78 79 79 78 77 76 74 73 72 72 71 70 71 73 73 73 72 71 71 71 70 69 68 68 68 68 69 68 68 69 69 69 68 67 68 67 66 63 63 63 63 64 64
71 72 72 70 71 72 73 74 74 74 75 77 77 77 78 78 77 76 77 77 78 77 77 77 77 73 73 74 72 70 70 70 72 73 73 72 72 71 70 69 69 68 68 68 69 68 68 68 68 68 69 69 68 68 68 67 65 62 61 62 62 62 63
73 73 72 72 71 73 73 74 74 75 76 77 78 79 80 79 78 79 79 79 78 77 77 77 75 73 73 72 71 71 70 71 73 73 73 73 72 70 69 69 69 69 70 70 69 68 68 68 68 68 68 68 68 68 68 66 64 61 60 60 60 61 63
70 71 72 71 69 71 72 73 74 74 74 76 78 78 79 78 79 79 78 78 77 78 76 74 72 70 69 69 69 70 70 72 72 72 73 72 71 70 69 69 69 69 70 70 69 68 68 68 68 69 69 70 69 68 67 67 61 59 58 58 59 60 62
74 73 73 73 72 70 72 73 74 75 75 77 77 78 79 79 80 79 80 80 75 72 71 70 68 67 67 67 68 68 69 72 71 72 72 72 71 70 70 69 69 69 69 69 69 69 69 68 69 69 67 65 64 64 65 66 60 58 58 58 58 60 62
77 74 73 71 72 71 71 74 75 76 76 76 77 78 79 80 80 79 77 72 68 70 69 68 67 66 66 67 67 67 70 72 72 72 72 72 70 70 70 69 69 69 70 69 69 69 68 68 67 67 64 65 65 65 65 64 60 57 57 57 57 58 59
78 76 72 71 70 70 70 71 73 75 75 73 73 73 74 76 76 72 69 68 69 68 67 68 67 67 67 67 68 69 70 71 71 72 72 71 70 71 71 71 71 70 70 69 70 69 68 67 65 66 67 66 66 66 64 64 61 56 54 55 55 59 60
77 78 77 78 77 74 73 71 72 74 74 74 73 71 72 72 71 68 67 68 68 69 69 67 67 67 67 68 70 70 69 71 72 73 73 71 72 72 71 70 70 71 69 68 67 66 64 65 63 65 63 65 65 67 65 62 59 54 55 54 55 58 58
73 74 75 73 73 72 72 73 73 71 71 70 68 69 71 71 70 69 68 68 70 70 70 70 70 70 70 70 71 70 70 72 72 73 73 72 72 72 71 71 70 68 67 66 65 64 63 62 63 64 63 64 63 65 63 62 61 60 53 53 53 56 59
73 75 74 73 72 72 70 70 72 71 71 70 69 70 71 72 71 70 70 69 69 70 72 72 72 72 71 71 71 72 73 74 73 73 74 74 73 73 71 68 68 67 66 65 65 65 63 63 64 64 63 62 63 62 61 63 61 60 51 51 51 53 57
74 74 72 72 70 69 68 67 66 68 69 69 70 72 72 71 71 70 68 68 69 71 73 73 73 74 72 71 72 74 73 74 74 74 75 74 72 68 65 66 68 68 67 66 64 63 64 65 64 61 60 60 60 60 59 63 63 57 54 51 49 51 53
73 76 71 68 69 70 70 67 66 68 68 69 71 72 73 73 70 69 69 68 70 73 72 71 72 73 74 74 74 74 74 73 74 74 72 70 69 67 67 67 67 66 66 65 64 63 63 62 61 60 59 57 57 57 57 56 60 59 55 49 47 47 49
67 69 71 73 72 70 70 68 68 68 68 69 69 70 72 72 70 69 69 69 72 72 72 69 70 69 69 68 68 69 72 70 69 69 69 69 69 68 66 64 65 65 66 64 64 63 62 59 59 58 57 57 57 57 57 57 56 58 57 54 49 48 48
67 68 68 68 71 70 69 70 68 68 68 68 68 69 71 72 71 70 69 70 71 70 72 70 69 68 68 68 67 67 68 67 67 68 68 68 68 66 64 63 64 64 65 65 65 62 60 58 58 57 56 55 56 55 55 57 57 56 58 57 55 52 51
66 67 67 68 68 70 69 69 68 68 68 66 68 67 69 69 69 67 67 68 69 70 69 70 69 69 68 67 67 68 70 69 69 68 67 66 67 66 65 65 65 65 64 63 61 60 59 57 56 56 56 55 54 54 54 56 56 54 54 58 57 55 53
66 65 66 67 68 70 68 67 67 67 68 66 67 69 70 69 69 69 69 68 69 68 70 71 69 69 68 67 67 67 66 67 66 66 66 65 64 64 65 64 64 64 62 61 60 59 59 59 58 57 56 55 54 55 57 57 53 51 51 51 50 51 53
64 65 65 66 68 68 67 67 66 66 66 65 67 68 69 70 69 70 70 71 70 70 69 69 68 68 68 68 68 67 66 67 72 65 61 59 60 61 61 60 61 61 60 59 60 59 58 58 58 56 57 56 54 55 57 55 51 50 50 49 51 50 48
61 62 63 65 66 67 68 67 66 66 65 65 67 68 69 69 69 69 67 68 68 68 68 68 68 66 66 66 66 66 68 68 66 62 59 55 52 49 49 52 56 55 51 49 50 55 59 56 55 57 55 56 55 56 56 54 52 52 51 52 48 48 47
63 65 65 65 65 65 66 67 66 65 65 65 67 67 67 66 66 66 66 66 66 66 63 64 65 66 65 65 66 68 68 67 64 60 57 55 53 52 51 48 42 45 52 52 52 48 48 51 53 55 53 51 49 52 55 55 52 49 45 43 41 40 41
65 65 65 66 66 65 65 65 66 65 64 64 65 65 65 64 64 64 65 64 64 64 63 62 63 66 65 65 66 66 68 67 63 60 58 56 55 54 53 50 49 41 41 44 46 44 41 41 44 49 52 54 51 50 49 49 45 42 42 41 40 39 39
66 66 67 66 66 65 65 64 64 64 64 64 65 66 65 64 65 65 66 65 64 64 63 63 61 62 63 64 66 68 69 66 64 60 58 56 55 55 54 52 50 49 43 40 41 41 39 39 41 43 46 48 51 50 49 46 42 41 40 40 40 39 39
MSLP
1008.54 1009.22 1009.46 1009.54 1009.86 1010.02 1010.26 1010.46 1010.58 1010.94 1011.10 1011.26 1011.38 1011.58 1011.82 1012.06 1012.34 1012.62 1012.94 1013.14 1013.34 1013.62 1013.74 1013.74 1013.86 1014.02 1014.18 1014.34 1014.50 1014.66 1014.70 1014.94 1015.10 1015.34 1015.62 1015.74 1015.86 1016.18 1016.42 1016.50 1016.58 1016.66 1016.66 1016.74 1016.74 1016.78 1016.66 1016.66 1016.70 1016.74 1016.86 1016.90 1016.94 1016.86 1016.78 1016.74 1016.78 1016.78 1016.78 1016.78 1016.82 1016.90 1016.90
1008.86 1009.10 1009.30 1009.46 1009.74 1009.82 1009.78 1009.82 1010.06 1010.38 1010.62 1010.74 1010.90 1011.02 1011.18 1011.46 1011.78 1012.22 1012.38 1012.54 1012.70 1012.94 1013.22 1013.34 1013.50 1013.66 1013.82 1014.06 1014.26 1014.46 1014.58 1014.70 1014.82 1014.98 1015.22 1015.50 1015.58 1015.78 1015.90 1016.14 1016.26 1016.38 1016.38 1016.34 1016.42 1016.42 1016.46 1016.46 1016.46 1016.66 1016.82 1016.82 1016.82 1016.70 1016.66 1016.66 1016.66 1016.70 1016.74 1016.70 1016.82 1016.86 1016.86
1008.54 1008.78 1008.98 1009.18 1009.38 1009.46 1009.58 1009.74 1009.82 1009.82 1010.02 1010.26 1010.42 1010.70 1010.74 1010.78 1010.86 1011.18 1011.62 1012.06 1012.42 1012.58 1012.74 1012.94 1013.02 1013.22 1013.46 1013.70 1014.06 1014.30 1014.26 1014.50 1014.70 1014.86 1015.10 1015.34 1015.50 1015.58 1015.66 1015.82 1016.02 1016.14 1016.14 1016.14 1016.18 1016.22 1016.22 1016.34 1016.38 1016.50 1016.66 1016.78 1016.70 1016.66 1016.62 1016.58 1016.58 1016.62 1016.66 1016.70 1016.78 1016.82 1016.78
1008.14 1008.38 1008.38 1008.34 1008.42 1008.58 1008.78 1008.94 1009.22 1009.38 1009.42 1009.42 1009.58 1009.66 1009.86 1010.06 1010.06 1010.30 1010.66 1011.14 1011.74 1012.14 1012.46 1012.50 1012.62 1012.90 1013.14 1013.50 1013.86 1014.14 1014.18 1014.26 1014.34 1014.54 1014.78 1015.02 1015.22 1015.38 1015.58 1015.74 1015.90 1015.98 1016.14 1016.14 1016.02 1016.06 1016.14 1016.22 1016.34 1016.38 1016.50 1016.66 1016.66 1016.62 1016.62 1016.58 1016.54 1016.58 1016.58 1016.66 1016.74 1016.70 1016.74
1007.74 1007.70 1008.22 1008.82 1009.02 1009.14 1009.22 1009.14 1009.14 1009.10 1009.10 1008.98 1008.90 1008.90 1008.98 1009.22 1009.62 1009.98 1010.34 1010.54 1010.82 1011.30 1011.46 1011.74 1012.06 1012.34 1012.70 1012.94 1013.42 1013.74 1013.86 1014.02 1014.22 1014.30 1014.46 1014.70 1014.90 1015.18 1015.38 1015.62 1015.78 1015.98 1015.94 1015.94 1016.02 1016.10 1016.18 1016.30 1016.34 1016.38 1016.46 1016.50 1016.62 1016.62 1016.58 1016.50 1016.46 1016.42 1016.46 1016.50 1016.62 1016.58 1016.66
1007.94 1008.14 1008.22 1008.38 1008.62 1008.70 1008.62 1008.54 1008.50 1008.50 1008.66 1008.90 1008.98 1009.02 1009.06 1009.26 1009.58 1009.98 1010.10 1010.38 1010.58 1010.82 1011.22 1011.78 1012.14 1012.30 1012.62 1012.70 1013.02 1013.42 1013.66 1013.82 1013.94 1014.10 1014.26 1014.54 1014.86 1015.18 1015.26 1015.34 1015.58 1015.78 1015.90 1015.94 1015.94 1016.06 1016.10 1016.26 1016.30 1016.30 1016.38 1016.46 1016.54 1016.58 1016.54 1016.50 1016.38 1016.30 1016.30 1016.34 1016.38 1016.38 1016.42
1007.26 1007.30 1007.58 1007.74 1007.90 1008.22 1008.18 1008.10 1008.10 1007.98 1007.74 1007.74 1007.94 1008.30 1008.74 1009.18 1009.42 1009.54 1009.90 1010.30 1010.50 1010.94 1011.30 1011.46 1011.66 1012.06 1012.34 1012.50 1012.86 1013.26 1013.70 1013.86 1013.98 1014.14 1014.22 1014.50 1014.74 1014.98 1015.06 1015.06 1015.22 1015.42 1015.54 1015.70 1015.94 1015.94 1016.14 1016.22 1016.22 1016.22 1016.26 1016.30 1016.38 1016.46 1016.46 1016.42 1016.38 1016.22 1016.22 1016.26 1016.34 1016.26 1016.26
1006.42 1007.06 1007.34 1007.22 1006.94 1006.90 1007.50 1007.74 1007.34 1007.30 1007.58 1007.86 1008.34 1008.66 1008.86 1008.94 1009.30 1009.62 1009.82 1009.90 1010.22 1010.66 1010.86 1011.06 1011.34 1011.58 1012.02 1012.38 1012.78 1013.22 1013.54 1013.66 1013.74 1013.90 1014.14 1014.42 1014.66 1014.86 1014.90 1014.82 1014.90 1014.98 1015.30 1015.66 1015.70 1015.82 1015.94 1016.06 1016.06 1016.06 1016.06 1016.18 1016.22 1016.30 1016.30 1016.30 1016.34 1016.22 1016.22 1016.30 1016.30 1016.22 1016.10
1006.06 1005.90 1006.06 1006.18 1006.46 1006.58 1006.38 1006.42 1006.78 1007.02 1007.26 1007.58 1007.86 1008.06 1008.26 1008.62 1008.90 1009.06 1009.30 1009.70 1009.98 1010.30 1010.58 1010.62 1010.90 1011.30 1011.78 1012.26 1012.70 1013.06 1013.22 1013.42 1013.62 1013.74 1013.98 1014.22 1014.54 1014.74 1014.70 1014.54 1014.46 1014.62 1015.02 1015.30 1015.50 1015.62 1015.70 1015.78 1015.86 1015.90 1015.94 1016.06 1016.14 1016.18 1016.22 1016.18 1016.14 1016.06 1016.06 1016.14 1016.22 1016.26 1016.22
1005.78 1006.02 1005.98 1005.62 1005.38 1005.66 1005.98 1006.06 1006.34 1007.02 1007.42 1007.66 1007.94 1008.26 1008.42 1008.42 1008.58 1008.90 1009.26 1009.42 1009.70 1010.06 1010.22 1010.50 1010.82 1011.22 1011.74 1012.18 1012.50 1012.78 1013.10 1013.38 1013.50 1013.66 1013.78 1014.02 1014.30 1014.54 1014.46 1014.26 1014.22 1014.38 1014.70 1014.94 1015.18 1015.46 1015.46 1015.54 1015.62 1015.74 1015.86 1015.94 1015.98 1015.98 1016.02 1015.98 1015.94 1015.90 1015.90 1015.94 1016.02 1016.02 1015.90
1005.18 1005.38 1005.66 1005.70 1005.58 1005.50 1005.74 1006.18 1006.66 1006.82 1006.94 1007.26 1007.58 1007.78 1007.98 1008.30 1008.50 1008.70 1008.98 1009.10 1009.38 1009.54 1009.74 1010.14 1010.50 1011.02 1011.54 1011.86 1012.26 1012.58 1012.90 1013.14 1013.46 1013.70 1013.58 1013.70 1014.02 1014.30 1014.30 1014.14 1014.10 1014.26 1014.46 1014.70 1014.98 1015.14 1015.26 1015.38 1015.38 1015.54 1015.66 1015.78 1015.74 1015.70 1015.74 1015.70 1015.70 1015.78 1015.74 1015.70 1015.66 1015.62 1015.54
1005.02 1005.38 1005.50 1005.42 1005.38 1005.58 1005.98 1006.06 1006.06 1006.30 1006.66 1006.94 1007.18 1007.42 1007.70 1007.86 1008.02 1008.22 1008.42 1008.54 1008.62 1009.14 1009.58 1009.90 1010.18 1010.62 1011.18 1011.54 1012.02 1012.50 1012.74 1012.74 1013.02 1013.26 1013.22 1013.34 1013.70 1013.94 1013.98 1013.90 1013.94 1014.10 1014.26 1014.42 1014.70 1014.82 1014.98 1015.14 1015.22 1015.30 1015.42 1015.46 1015.42 1015.42 1015.46 1015.46 1015.50 1015.46 1015.46 1015.42 1015.34 1015.30 1015.22
1004.94 1005.14 1005.02 1004.90 1004.94 1005.10 1005.30 1005.78 1006.10 1006.14 1006.34 1006.50 1006.74 1006.98 1007.26 1007.46 1007.78 1007.94 1008.14 1008.34 1008.38 1008.54 1008.94 1009.38 1009.82 1010.30 1010.82 1011.18 1011.58 1012.02 1012.30 1012.50 1012.70 1012.86 1012.82 1012.94 1013.22 1013.50 1013.58 1013.62 1013.70 1013.90 1014.10 1014.14 1014.30 1014.54 1014.78 1014.90 1015.02 1014.98 1015.14 1015.18 1015.18 1015.22 1015.18 1015.18 1015.22 1015.34 1015.34 1015.22 1015.14 1015.06 1015.06
1004.50 1004.86 1004.90 1004.94 1005.10 1005.30 1005.54 1005.54 1005.74 1006.06 1006.14 1006.30 1006.54 1006.58 1006.82 1006.90 1006.98 1007.34 1007.66 1007.94 1007.98 1008.18 1008.58 1008.94 1009.34 1009.90 1010.34 1010.66 1011.14 1011.58 1012.14 1012.70 1013.34 1012.94 1012.46 1012.50 1012.86 1013.14 1013.26 1013.30 1013.46 1013.66 1013.74 1013.86 1014.10 1014.26 1014.42 1014.58 1014.74 1014.78 1014.86 1014.90 1014.94 1014.90 1014.90 1014.94 1015.06 1015.06 1015.06 1015.02 1014.94 1014.90 1014.86
1004.86 1004.86 1004.98 1005.18 1005.18 1005.14 1005.22 1005.54 1005.66 1005.62 1005.62 1005.58 1005.78 1006.26 1006.46 1006.74 1006.98 1007.06 1007.14 1007.14 1007.38 1007.74 1008.06 1008.26 1008.86 1009.46 1009.86 1010.22 1010.66 1011.22 1011.90 1012.42 1012.66 1012.42 1012.26 1012.38 1012.70 1012.90 1012.98 1013.02 1013.18 1013.38 1013.58 1013.70 1013.82 1013.94 1014.06 1014.22 1014.38 1014.54 1014.62 1014.62 1014.66 1014.62 1014.62 1014.74 1014.74 1014.74 1014.78 1014.82 1014.82 1014.78 1014.74
1004.78 1004.94 1004.90 1004.94 1004.86 1004.78 1004.74 1004.78 1004.90 1005.06 1005.22 1005.50 1005.74 1005.90 1006.18 1006.42 1006.66 1006.82 1007.06 1007.22 1007.22 1007.30 1007.38 1007.90 1008.46 1008.86 1009.26 1009.62 1010.02 1010.54 1010.78 1011.06 1011.62 1011.70 1011.90 1012.26 1012.46 1012.50 1012.54 1012.66 1012.94 1013.22 1013.38 1013.46 1013.50 1013.66 1013.82 1013.94 1014.06 1014.22 1014.34 1014.42 1014.46 1014.42 1014.38 1014.34 1014.26 1014.26 1014.26 1014.38 1014.50 1014.66 1014.74
1004.34 1004.70 1004.78 1004.62 1004.70 1004.70 1004.58 1004.54 1004.46 1004.58 1004.94 1005.22 1005.30 1005.42 1005.62 1005.78 1005.90 1006.10 1006.34 1006.58 1006.74 1006.82 1006.86 1007.22 1007.90 1008.30 1008.62 1009.22 1009.54 1009.78 1010.26 1011.22 1011.98 1011.58 1011.74 1011.82 1011.98 1012.14 1012.22 1012.34 1012.66 1012.94 1013.10 1013.18 1013.26 1013.38 1013.46 1013.58 1013.82 1013.94 1013.98 1014.06 1014.10 1014.10 1014.02 1013.90 1013.86 1013.86 1014.02 1014.22 1014.42 1014.54 1014.62
1003.82 1004.34 1004.34 1004.46 1004.38 1004.50 1004.78 1004.90 1005.02 1005.10 1005.02 1004.86 1004.90 1005.02 1005.14 1005.34 1005.46 1005.90 1006.26 1006.22 1006.34 1006.18 1006.38 1007.06 1007.70 1008.42 1009.10 1009.58 1010.22 1011.02 1011.14 1011.26 1011.86 1011.58 1011.30 1011.38 1011.58 1011.74 1011.90 1012.14 1012.50 1012.78 1012.90 1012.98 1013.14 1013.18 1013.22 1013.46 1013.54 1013.58 1013.66 1013.70 1013.70 1013.74 1013.62 1013.58 1013.46 1013.58 1013.82 1014.10 1014.22 1014.30 1014.30
1003.10 1003.06 1003.10 1003.34 1004.22 1004.58 1004.50 1004.54 1004.46 1004.54 1004.58 1004.62 1004.70 1004.82 1004.82 1004.86 1005.34 1005.66 1005.66 1005.82 1005.50 1005.86 1006.62 1007.02 1007.50 1008.10 1008.30 1008.42 1009.38 1011.10 1011.94 1012.22 1011.86 1011.30 1011.18 1011.26 1011.22 1011.38 1011.70 1012.06 1012.30 1012.54 1012.74 1012.82 1012.78 1012.94 1013.14 1013.18 1013.30 1013.38 1013.38 1013.46 1013.50 1013.46 1013.30 1013.30 1013.34 1013.58 1013.78 1013.86 1013.94 1013.90 1013.98
1002.74 1002.94 1003.02 1002.98 1002.78 1003.18 1003.86 1003.94 1004.06 1004.10 1004.06 1004.02 1003.98 1004.02 1004.06 1004.38 1004.74 1004.70 1004.66 1004.98 1005.38 1005.74 1005.94 1006.42 1007.02 1007.46 1007.98 1008.78 1009.54 1010.26 1010.70 1011.30 1011.34 1011.30 1011.10 1010.94 1011.02 1011.22 1011.58 1011.82 1012.02 1012.06 1012.18 1012.30 1012.54 1012.74 1012.86 1012.90 1013.06 1013.06 1013.10 1013.10 1013.14 1013.06 1013.02 1013.10 1013.26 1013.38 1013.50 1013.54 1013.50 1013.46 1013.58
1002.62 1002.86 1002.82 1002.86 1002.94 1002.62 1002.82 1003.42 1003.54 1003.70 1004.06 1004.18 1004.14 1004.14 1004.38 1004.66 1004.58 1004.74 1005.18 1005.22 1005.38 1005.46 1006.10 1006.82 1007.34 1008.10 1008.66 1009.02 1009.38 1010.02 1010.74 1010.98 1011.18 1011.38 1011.06 1010.98 1010.94 1011.10 1011.30 1011.46 1011.58 1011.74 1011.82 1011.98 1012.18 1012.34 1012.46 1012.54 1012.66 1012.70 1012.66 1012.70 1012.94 1013.18 1013.22 1013.10 1013.06 1013.10 1013.18 1013.26 1013.22 1013.18 1013.30
1002.02 1002.14 1002.26 1002.10 1002.06 1002.14 1002.46 1003.14 1003.18 1003.38 1003.54 1003.34 1003.78 1004.10 1004.34 1004.46 1004.34 1004.70 1004.82 1005.14 1006.22 1007.02 1007.50 1008.02 1008.82 1009.58 1009.62 1009.82 1010.02 1010.30 1010.70 1010.82 1011.18 1011.06 1010.94 1010.90 1010.90 1010.98 1011.10 1011.18 1011.22 1011.30 1011.34 1011.50 1011.62 1011.62 1011.74 1011.98 1012.14 1012.34 1012.82 1013.62 1014.38 1014.54 1013.94 1012.98 1012.82 1012.82 1012.94 1013.02 1013.06 1013.10 1013.30
1001.30 1001.30 1001.22 1001.22 1001.18 1001.46 1001.98 1002.22 1002.42 1002.58 1002.78 1003.18 1003.38 1003.74 1003.98 1004.02 1004.30 1004.66 1005.46 1006.66 1007.18 1007.46 1007.98 1008.22 1008.82 1009.46 1009.94 1010.26 1010.38 1010.90 1011.30 1010.62 1010.14 1010.26 1010.50 1010.62 1010.70 1010.78 1010.78 1010.82 1010.86 1010.74 1010.74 1011.14 1011.26 1011.42 1011.66 1011.94 1012.30 1012.42 1012.50 1012.50 1012.86 1013.26 1013.18 1012.78 1012.62 1012.66 1012.70 1012.86 1012.98 1013.22 1013.34
1000.90 1000.66 1000.82 1001.14 1001.70 1001.54 1001.78 1002.26 1002.42 1002.54 1002.98 1003.46 1003.86 1003.90 1004.06 1004.38 1004.98 1005.82 1006.58 1006.62 1006.34 1006.58 1007.06 1007.26 1007.74 1008.14 1008.62 1009.42 1009.94 1010.66 1010.74 1010.34 1009.86 1009.86 1010.02 1010.22 1010.30 1010.22 1010.14 1010.06 1010.06 1010.22 1010.42 1010.82 1011.02 1011.38 1011.90 1012.02 1012.02 1011.98 1012.02 1012.14 1012.38 1012.58 1012.66 1012.50 1012.42 1012.54 1012.66 1012.74 1012.86 1012.98 1013.02
1000.94 1000.62 1000.78 1001.02 1001.06 1001.42 1001.42 1001.98 1002.30 1002.50 1002.82 1003.22 1003.70 1003.86 1003.86 1004.18 1004.82 1005.66 1006.30 1006.30 1006.34 1006.38 1006.90 1007.74 1008.58 1008.46 1008.46 1008.50 1008.66 1009.34 1009.90 1009.58 1009.18 1009.34 1009.62 1009.74 1009.62 1009.58 1009.70 1009.78 1009.82 1009.82 1010.18 1010.62 1010.90 1011.18 1011.34 1011.50 1011.78 1011.74 1011.70 1011.86 1012.38 1012.70 1012.46 1012.30 1012.26 1012.34 1012.38 1012.50 1012.70 1012.86 1012.90
1001.06 1001.18 1001.42 1001.14 1001.34 1001.26 1001.62 1001.90 1002.30 1002.86 1003.14 1003.50 1003.78 1003.58 1003.70 1004.18 1004.94 1005.66 1006.14 1006.46 1006.38 1006.42 1006.42 1006.74 1007.14 1007.54 1007.46 1007.50 1008.18 1009.18 1009.74 1009.02 1008.86 1008.98 1009.18 1009.18 1009.02 1009.06 1009.14 1009.22 1009.54 1009.90 1010.34 1010.50 1010.58 1010.94 1011.30 1011.42 1011.66 1011.66 1011.94 1012.10 1012.06 1012.34 1012.34 1012.18 1012.26 1012.26 1012.46 1012.66 1012.74 1012.70 1012.78
1000.90 1001.02 1001.30 1001.22 1001.30 1001.70 1001.54 1001.78 1001.70 1002.30 1002.62 1003.06 1003.34 1003.46 1003.62 1003.94 1004.54 1005.14 1005.22 1005.22 1005.42 1005.34 1005.02 1005.30 1005.98 1006.70 1007.14 1007.62 1008.30 1008.70 1008.58 1008.22 1008.38 1008.62 1008.58 1008.38 1008.42 1008.58 1008.90 1009.22 1009.54 1009.94 1010.18 1010.46 1010.58 1010.78 1010.98 1011.18 1011.62 1011.82 1012.02 1011.94 1011.90 1012.18 1012.22 1012.10 1012.14 1012.42 1012.62 1012.66 1012.70 1012.78 1012.82
1001.10 1001.22 1001.78 1002.10 1002.14 1001.66 1001.62 1002.34 1002.54 1002.82 1002.94 1002.94 1002.90 1002.94 1003.22 1003.54 1004.02 1004.46 1004.82 1005.02 1004.98 1004.50 1004.30 1005.14 1005.70 1006.18 1007.06 1007.78 1007.90 1007.86 1007.90 1007.74 1007.86 1007.94 1007.94 1007.86 1008.18 1008.78 1009.18 1009.30 1009.42 1009.70 1009.98 1010.34 1010.50 1010.78 1011.18 1011.34 1011.62 1012.22 1012.26 1012.14 1012.02 1012.18 1012.18 1012.30 1012.42 1012.58 1012.86 1012.94 1012.98 1012.98 1012.78
1002.02 1001.58 1001.66 1002.18 1002.06 1002.50 1001.98 1002.34 1002.90 1002.98 1002.98 1003.10 1002.90 1002.74 1002.70 1002.94 1003.66 1004.14 1004.34 1004.54 1004.10 1004.02 1004.46 1004.90 1005.30 1005.78 1006.30 1006.74 1007.14 1007.34 1007.34 1007.42 1007.54 1007.58 1007.70 1008.02 1008.34 1008.74 1009.22 1009.34 1009.50 1009.82 1010.02 1010.22 1010.58 1010.94 1011.14 1011.38 1011.78 1012.10 1012.30 1012.30 1012.30 1012.34 1012.46 1012.50 1012.50 1012.58 1012.86 1013.10 1013.06 1012.98 1012.90
1001.62 1001.70 1002.10 1002.14 1002.34 1002.38 1002.46 1002.42 1002.90 1003.14 1003.30 1003.10 1003.02 1002.90 1002.82 1002.98 1003.58 1003.86 1004.02 1003.82 1003.46 1003.98 1004.46 1004.90 1005.26 1005.74 1006.38 1007.42 1008.34 1008.58 1007.82 1007.50 1007.46 1007.54 1007.70 1008.06 1008.46 1008.82 1009.18 1009.38 1009.46 1009.66 1009.86 1010.14 1010.30 1010.50 1010.90 1011.58 1011.98 1012.18 1012.14 1012.18 1012.26 1012.34 1012.46 1012.42 1012.46 1012.62 1012.62 1012.78 1012.86 1012.86 1012.78
1002.30 1002.34 1002.42 1002.30 1002.54 1003.06 1003.18 1002.34 1002.50 1003.06 1003.18 1003.22 1003.10 1002.98 1002.90 1002.86 1003.14 1003.74 1004.06 1003.74 1003.82 1004.14 1004.38 1004.78 1005.34 1006.10 1006.86 1007.78 1008.74 1008.58 1007.86 1007.42 1007.34 1007.50 1007.74 1008.06 1008.38 1008.94 1009.30 1009.38 1009.38 1009.58 1009.66 1009.82 1010.14 1010.62 1011.10 1011.58 1011.82 1011.90 1012.02 1012.14 1012.18 1012.30 1012.46 1012.46 1012.54 1012.58 1012.62 1012.66 1012.74 1012.74 1012.70
1002.02 1001.98 1002.06 1002.18 1002.50 1002.70 1002.94 1003.66 1003.34 1003.06 1003.42 1003.66 1003.86 1004.22 1004.54 1004.82 1005.18 1006.02 1006.46 1006.10 1005.90 1005.50 1005.10 1005.10 1005.62 1006.02 1006.62 1007.70 1007.98 1007.58 1007.30 1007.66 1007.78 1007.90 1008.34 1008.66 1008.78 1008.90 1009.02 1009.18 1009.38 1009.46 1009.86 1010.14 1010.42 1010.90 1011.30 1011.58 1011.66 1011.66 1011.82 1011.86 1011.98 1012.06 1012.22 1012.34 1012.50 1012.58 1012.62 1012.66 1012.70 1012.70 1012.70
1002.34 1002.26 1001.90 1001.94 1002.38 1002.58 1003.14 1003.62 1003.98 1004.06 1004.30 1004.66 1004.62 1004.74 1004.90 1005.06 1005.10 1005.26 1005.50 1006.10 1006.58 1006.90 1006.46 1006.06 1006.30 1006.86 1007.18 1007.38 1007.26 1007.26 1007.58 1007.42 1007.94 1008.34 1008.66 1008.90 1009.06 1009.14 1009.14 1009.14 1009.34 1009.70 1010.06 1010.46 1010.62 1010.90 1011.06 1011.30 1011.42 1011.66 1011.78 1011.78 1011.82 1012.10 1012.34 1012.34 1012.38 1012.34 1012.46 1012.54 1012.58 1012.58 1012.62
1002.46 1002.50 1002.62 1002.38 1002.42 1002.70 1003.14 1003.50 1003.90 1004.14 1004.38 1004.78 1004.78 1004.66 1004.78 1004.90 1005.18 1005.42 1005.94 1006.42 1006.62 1007.34 1008.10 1008.14 1008.30 1007.94 1007.22 1006.98 1006.94 1007.50 1007.58 1007.94 1008.10 1008.42 1008.98 1009.54 1009.62 1009.58 1009.70 1009.90 1009.86 1009.94 1010.26 1010.42 1010.54 1010.78 1011.10 1011.18 1011.38 1011.46 1011.58 1011.66 1011.86 1012.22 1012.38 1012.34 1012.30 1012.30 1012.22 1012.34 1012.46 1012.50 1012.62
1003.42 1003.50 1003.30 1003.38 1003.42 1003.14 1003.14 1003.46 1004.06 1004.46 1004.74 1004.98 1004.66 1004.62 1004.90 1005.26 1005.62 1005.86 1006.38 1006.86 1006.90 1007.14 1007.74 1008.22 1008.34 1008.06 1007.62 1007.70 1007.86 1007.90 1007.66 1007.78 1008.30 1008.86 1009.50 1010.14 1010.70 1011.02 1011.14 1010.82 1010.54 1010.50 1010.74 1011.22 1011.26 1010.90 1010.78 1011.02 1011.22 1011.26 1011.42 1011.46 1011.66 1011.90 1012.18 1012.34 1012.18 1011.98 1012.38 1012.50 1012.62 1012.54 1012.50
1003.26 1003.42 1003.38 1003.42 1003.34 1003.42 1003.74 1003.86 1004.06 1004.58 1005.06 1005.26 1004.98 1004.94 1005.30 1005.58 1005.90 1005.98 1005.94 1006.14 1006.22 1006.58 1007.54 1008.22 1008.58 1008.66 1008.62 1008.26 1008.10 1007.98 1008.30 1008.74 1009.10 1009.58 1009.74 1010.02 1010.38 1010.66 1011.42 1012.02 1012.02 1011.78 1011.26 1011.22 1011.66 1011.50 1011.14 1010.90 1010.94 1011.14 1011.38 1011.62 1011.94 1011.94 1011.74 1011.70 1011.86 1012.14 1012.34 1012.54 1012.70 1012.82 1012.94
1003.18 1003.30 1003.50 1003.42 1003.58 1003.86 1004.06 1004.46 1004.58 1004.82 1005.26 1005.46 1005.30 1005.38 1005.58 1005.90 1006.14 1006.22 1006.22 1006.50 1006.98 1006.90 1007.38 1008.66 1009.46 1009.34 1009.10 1009.26 1009.14 1008.78 1008.98 1009.02 1009.38 1009.62 1009.78 1009.94 1010.18 1010.50 1010.90 1011.50 1012.14 1012.42 1012.42 1012.22 1011.98 1011.66 1011.50 1011.42 1011.34 1011.42 1011.46 1011.38 1011.66 1012.18 1012.06 1011.94 1012.10 1012.30 1012.50 1012.70 1012.82 1012.90 1012.94
1003.42 1003.26 1003.26 1003.50 1003.70 1003.94 1004.26 1004.58 1004.78 1004.82 1005.06 1005.18 1005.22 1005.42 1005.58 1005.90 1005.98 1005.82 1006.02 1006.30 1006.38 1006.42 1007.06 1007.90 1008.86 1008.94 1008.50 1008.02 1007.86 1007.94 1008.10 1008.54 1008.98 1009.42 1009.66 1010.06 1010.26 1010.50 1010.86 1011.22 1011.58 1012.14 1012.42 1012.46 1012.22 1012.14 1012.02 1011.86 1011.74 1011.70 1011.66 1011.62 1011.66 1011.78 1012.14 1012.38 1012.46 1012.58 1012.70 1012.82 1012.90 1012.90 1012.90
Wind_Speed
16 15 14 13 14 15 16 16 17 16 16 16 16 17 17 14 14 12 12 12 13 12 10 10 10 8 9 7 7 6 7 8 7 7 6 6 6 6 5 4 4 4 4 4 4 5 4 3 3 2 3 3 4 3 3 3 3 3 3 3 3 3 3
14 14 14 13 14 15 16 17 17 16 16 16 15 18 16 17 15 14 14 14 15 15 13 11 11 10 10 8 7 7 8 8 7 6 6 5 4 5 5 5 5 4 4 4 4 3 3 4 3 3 3 4 4 4 4 3 3 3 3 3 3 3 3
14 14 14 14 14 15 16 15 16 17 17 16 16 16 17 19 18 19 17 16 16 15 13 12 13 12 10 9 8 8 9 7 6 7 7 7 6 6 5 5 4 5 5 4 3 3 3 4 3 3 4 5 4 4 4 3 3 3 3 3 3 4 4
15 15 16 17 18 17 18 19 19 18 17 19 20 21 20 20 19 18 18 18 18 16 16 14 13 12 11 11 9 9 9 8 8 8 7 7 7 5 5 4 3 3 3 4 4 4 3 4 4 3 3 4 3 3 3 3 3 3 3 3 3 4 4
14 15 13 11 12 12 13 15 17 18 19 20 20 20 21 20 18 16 16 17 19 20 18 17 13 11 10 11 9 8 9 9 8 7 7 6 6 5 6 5 4 4 5 3 3 3 3 3 3 3 3 2 3 3 3 3 3 3 3 2 3 3 4
14 13 14 15 14 15 17 18 19 20 20 19 19 18 17 18 16 17 17 17 17 17 14 12 11 11 11 11 10 9 8 8 8 7 8 7 6 6 6 6 6 5 4 5 4 4 4 4 4 3 3 3 3 3 3 4 4 3 3 3 3 4 4
15 17 16 16 15 15 18 19 19 20 21 20 18 16 14 15 18 17 15 16 16 16 15 16 14 12 11 11 10 10 9 8 8 8 6 6 6 7 7 6 6 6 6 4 4 4 4 4 4 4 3 3 3 4 4 4 4 4 3 3 4 4 5
15 14 13 17 21 22 17 18 22 19 16 13 14 15 16 15 14 15 16 16 15 14 15 15 13 12 11 10 9 10 9 9 8 8 7 7 6 7 7 7 7 6 4 4 5 4 4 4 4 4 4 4 4 4 4 4 4 4 3 4 4 5 5
14 18 21 18 15 18 21 19 18 19 19 18 18 18 18 16 17 17 17 15 14 15 15 14 13 11 10 10 10 10 10 9 8 8 8 8 7 7 7 7 6 5 5 6 5 4 4 5 5 5 4 4 4 4 4 4 4 4 4 4 4 4 4
15 13 13 19 20 15 15 19 17 14 17 17 15 14 16 16 16 14 14 15 14 16 15 13 11 10 9 9 10 10 9 9 8 9 9 9 7 8 7 7 6 5 6 6 5 5 5 5 5 5 5 5 4 5 5 5 5 5 4 4 4 5 6
14 16 15 16 18 18 16 15 16 16 16 17 16 16 16 15 15 15 15 15 15 15 15 12 11 11 10 11 12 11 11 10 9 9 9 9 7 8 8 7 7 5 6 6 5 5 5 5 5 5 5 6 6 5 5 6 5 5 5 5 5 6 6
13 14 16 16 16 16 16 15 16 17 16 14 15 16 16 16 16 16 16 17 16 15 13 13 11 12 12 12 12 11 12 13 12 12 11 10 9 9 9 8 7 6 6 6 7 6 6 6 6 6 6 6 6 5 5 5 5 6 6 5 6 6 6
12 13 16 20 17 15 13 10 13 16 17 17 18 16 16 17 16 16 16 17 16 15 15 14 13 13 13 13 13 12 13 12 12 11 11 10 10 9 8 8 8 7 7 7 7 8 7 7 7 6 5 6 5 5 6 6 5 4 5 5 5 6 5
13 12 10 10 11 13 15 17 17 17 18 17 17 17 16 17 18 18 18 18 16 15 14 13 14 14 14 14 13 12 11 8 6 9 10 9 9 9 9 8 7 7 7 6 7 7 7 7 7 7 5 5 5 6 6 5 4 5 5 6 6 5 5
11 13 11 11 12 13 14 14 14 17 18 20 20 19 19 17 16 15 16 17 16 15 16 15 15 15 15 15 14 11 10 12 14 10 10 10 9 9 9 8 7 7 7 7 7 7 7 7 6 5 5 5 5 6 5 5 6 5 6 6 5 5 5
10 10 12 13 14 14 15 17 17 18 18 18 19 19 18 17 16 17 17 16 16 16 16 15 16 17 17 17 14 13 15 14 10 11 10 10 11 10 9 8 7 7 7 7 7 7 7 6 6 5 6 6 6 6 6 5 4 6 10 7 4 3 3
10 11 11 11 9 11 14 16 16 16 16 17 19 20 19 18 18 18 18 16 17 17 17 17 17 17 17 15 14 15 13 12 11 11 11 12 11 9 8 8 7 7 7 7 7 7 6 6 6 6 6 7 7 7 6 5 5 9 8 6 4 2 3
10 9 10 10 11 11 10 9 9 11 14 16 17 18 18 18 18 16 17 17 17 17 16 15 14 13 10 9 6 5 8 10 11 11 13 12 11 10 9 8 8 8 7 7 7 7 6 6 7 7 7 7 6 6 6 6 8 9 6 5 5 5 5
8 9 8 8 10 11 12 12 13 14 15 14 15 15 16 16 14 16 15 16 17 12 12 15 15 14 17 18 15 11 7 9 14 13 11 11 11 9 8 8 8 8 7 9 8 5 6 7 6 8 8 7 7 7 7 6 6 7 6 6 7 8 7
10 9 8 8 10 12 13 12 11 12 14 15 16 17 17 15 16 18 17 15 12 14 16 16 14 16 14 12 13 13 14 17 15 12 12 11 9 8 8 9 9 9 8 8 7 7 7 7 8 8 8 8 8 8 6 5 6 8 9 9 10 11 7
8 8 10 9 8 9 11 12 12 11 11 11 12 12 11 11 12 10 9 11 14 14 10 8 11 10 9 10 9 7 7 10 9 10 11 9 9 9 10 10 9 9 9 8 8 9 9 9 9 8 9 9 5 4 4 4 8 11 10 10 11 12 7
8 9 9 9 10 9 10 10 11 12 13 12 11 11 10 12 12 11 14 9 2 7 7 9 11 9 8 8 9 7 9 10 8 12 10 9 9 10 11 10 10 11 9 9 8 8 7 6 7 6 1 9 5 7 10 6 10 11 11 11 12 9 3
9 7 6 6 6 8 8 9 10 11 10 9 11 12 13 12 11 9 5 12 13 12 11 13 12 10 7 4 3 1 9 9 13 13 12 11 11 11 11 11 11 10 8 9 9 8 7 3 1 1 1 5 7 10 9 6 8 11 12 12 9 4 4
4 5 4 4 2 4 6 5 4 2 3 3 3 3 3 4 7 12 14 14 13 15 14 13 13 13 13 10 8 9 10 10 11 11 12 11 12 13 12 12 9 9 7 9 9 4 5 6 3 2 6 7 8 8 7 6 7 10 9 9 8 7 4
4 7 8 9 10 8 6 7 10 10 10 10 8 4 6 10 14 13 12 13 13 13 13 9 8 11 12 12 12 11 11 12 10 11 11 12 13 12 12 10 10 8 5 2 3 5 6 6 4 3 1 2 2 2 6 5 5 7 10 10 8 5 3
4 4 2 5 5 7 8 11 12 10 9 9 9 10 13 14 14 14 12 10 10 11 13 16 15 13 14 13 11 11 15 16 11 12 12 13 12 11 11 9 5 4 5 4 4 4 5 5 2 3 2 5 6 9 6 5 4 6 8 6 4 3 2
3 1 4 5 5 5 7 6 12 13 13 12 12 11 12 13 14 14 14 14 13 14 15 13 10 12 14 14 15 16 17 15 12 14 14 12 12 11 7 4 4 4 6 5 5 5 4 4 4 4 5 6 5 6 4 4 5 4 6 3 4 4 6
4 2 5 3 2 5 7 5 6 8 8 10 14 13 12 12 13 12 12 13 14 16 12 9 9 11 13 16 16 15 15 15 13 13 13 11 7 4 4 3 5 6 6 6 5 5 2 1 0 3 4 3 3 3 3 0 5 5 5 6 6 6 6
1 1 1 3 1 1 7 7 7 10 11 9 10 11 12 14 14 13 12 14 16 11 7 5 6 8 11 13 13 15 16 13 13 11 6 3 6 7 6 5 7 6 7 8 6 4 1 3 3 5 4 3 2 1 0 1 2 7 6 7 7 6 3
3 4 4 2 1 5 4 6 7 8 6 8 8 8 8 11 12 13 13 16 12 9 7 5 7 8 7 5 0 9 10 6 4 4 5 6 7 8 8 6 6 6 5 4 4 4 3 4 5 5 5 4 4 2 1 0 2 6 7 6 6 5 4
3 4 3 3 4 1 3 7 12 8 9 7 8 8 9 8 12 12 12 9 5 9 9 8 7 8 6 6 6 3 4 5 4 3 4 6 9 9 7 4 3 3 2 3 1 2 5 5 5 6 6 4 4 4 1 2 4 3 5 6 4 3 3
3 3 3 3 4 4 2 5 0 8 8 4 1 4 9 13 14 13 12 15 13 5 2 6 9 8 9 7 5 3 5 6 5 7 7 5 4 6 5 5 5 3 1 2 4 6 7 7 5 5 4 4 3 4 5 3 4 3 2 2 2 1 3
0 1 3 4 4 6 4 3 2 4 5 7 7 8 10 13 12 12 12 12 13 13 6 9 10 9 8 8 8 6 2 5 6 7 6 6 5 4 3 4 5 4 5 5 7 6 5 5 5 5 4 3 4 3 4 4 3 3 2 1 1 2 2
2 0 1 1 5 6 6 6 5 7 9 9 9 11 10 11 12 11 10 9 10 10 7 9 8 3 5 5 6 4 4 6 10 9 6 5 5 5 5 5 4 6 6 6 7 7 4 5 5 5 5 5 4 4 4 4 4 2 2 1 0 0 2
3 3 2 2 1 2 8 7 8 9 12 10 9 12 13 12 11 13 14 11 11 12 12 10 8 6 6 4 2 3 5 6 6 6 6 6 6 6 6 5 3 5 5 4 2 1 6 6 4 4 4 5 6 6 5 4 5 4 3 1 2 1 1
2 0 1 1 3 4 4 7 12 13 12 9 10 12 13 14 13 12 12 11 12 13 11 9 9 10 9 8 5 4 2 3 5 5 5 6 6 6 6 10 9 6 2 2 3 4 3 5 3 5 5 5 1 1 4 7 3 5 5 4 3 1 1
4 4 3 4 6 5 7 7 9 13 13 10 10 12 11 11 10 10 11 10 8 10 10 7 5 0 1 3 3 4 6 6 7 6 6 7 7 7 8 5 6 9 9 6 5 6 8 8 5 5 4 6 4 3 6 7 8 7 3 1 2 2 4
4 4 4 4 5 9 10 10 10 12 13 10 11 12 10 9 9 11 11 10 11 13 13 12 10 9 10 12 13 15 12 9 9 8 8 6 6 7 8 7 7 4 6 7 6 5 5 6 7 7 8 7 7 5 2 3 3 3 2 2 4 5 5
Wind_Direction
184 186 190 186 183 183 183 183 179 180 181 181 180 179 179 179 181 179 178 179 181 177 183 175 172 168 167 171 165 166 163 163 160 161 165 169 161 157 165 177 161 175 170 160 186 173 199 210 198 188 190 193 203 217 226 231 241 244 249 255 253 251 249
185 187 186 186 187 188 186 183 181 182 183 183 182 181 180 180 178 179 181 182 182 180 180 179 173 174 172 172 167 172 165 170 168 160 154 151 148 154 162 171 164 178 178 185 177 210 193 219 190 188 192 209 210 206 217 226 228 243 246 253 242 248 249
185 185 186 186 188 189 188 184 184 184 184 185 183 182 183 183 182 181 179 181 182 182 180 181 179 176 174 169 166 183 171 167 164 156 156 163 168 166 173 165 178 167 193 190 190 210 216 227 221 198 197 213 221 223 224 235 244 244 251 259 261 261 259
182 185 187 188 189 187 185 184 184 187 189 187 186 186 187 186 184 182 179 180 180 181 183 187 181 176 173 169 173 178 176 174 168 165 166 165 173 174 157 173 180 183 188 213 214 208 211 217 231 214 217 214 228 238 239 232 252 253 260 266 265 263 261
185 185 182 182 186 187 189 189 187 188 190 193 192 190 188 186 183 182 182 181 181 184 186 183 182 176 173 170 174 178 178 175 173 170 168 171 173 167 164 171 185 199 212 223 226 222 234 225 228 228 232 205 230 244 245 250 254 259 267 254 267 273 262
177 177 181 183 184 189 190 191 190 190 191 191 194 193 190 185 182 184 184 183 185 185 182 177 180 177 175 176 173 179 175 178 174 174 172 174 165 174 178 183 185 204 213 228 230 227 224 222 222 217 221 226 223 245 260 267 265 258 256 254 254 268 274
180 180 180 184 186 190 195 193 193 195 194 194 191 189 184 183 185 186 183 186 186 179 179 183 182 180 181 175 178 175 175 177 177 177 175 167 175 179 189 185 184 193 207 210 225 211 208 208 218 218 218 233 241 238 255 255 261 255 251 258 269 270 261
177 175 173 181 192 193 187 197 200 194 193 189 185 185 187 187 184 183 186 187 184 183 186 185 182 181 176 174 171 175 180 180 178 178 172 172 178 185 190 186 185 190 185 203 223 196 200 213 231 235 237 238 245 246 250 254 253 264 259 257 262 266 264
178 181 188 190 189 194 198 195 191 190 187 185 186 187 186 184 186 187 186 182 184 184 189 186 183 175 171 170 170 182 183 175 177 173 173 172 177 189 193 193 192 189 191 209 220 209 206 220 229 241 245 245 250 252 254 255 259 261 257 254 252 268 277
180 193 189 191 195 193 190 194 189 183 188 188 186 184 185 186 188 183 182 185 183 186 185 184 178 170 165 166 176 183 177 179 177 174 177 174 178 192 199 194 198 195 201 210 208 213 225 218 226 235 237 238 248 242 244 258 265 270 268 264 258 243 243
181 186 189 194 197 196 193 191 189 188 186 186 184 185 184 183 184 183 185 184 186 187 184 180 172 169 167 170 179 185 178 174 175 186 183 180 180 197 201 199 203 199 206 210 212 218 218 229 226 231 231 229 230 236 244 250 256 266 270 259 233 229 235
180 179 189 194 197 196 191 189 191 190 186 184 183 182 184 184 184 185 184 187 185 181 180 180 172 172 170 176 181 181 181 181 180 189 184 182 187 198 203 202 206 206 209 200 215 222 216 220 226 219 222 221 228 233 242 246 243 242 245 237 230 232 236
174 183 190 195 194 194 197 194 186 182 183 184 184 183 183 183 185 185 187 187 186 183 180 176 172 173 174 179 183 184 185 178 181 188 183 184 191 198 203 202 199 200 207 205 208 211 215 220 222 226 216 227 228 231 230 237 240 233 224 227 229 232 239
176 185 193 191 190 185 183 188 188 187 187 185 185 185 185 186 185 184 186 188 187 183 179 176 175 175 179 182 185 184 174 160 196 199 188 186 190 199 205 200 196 198 202 194 200 205 210 216 217 224 205 218 221 232 229 226 213 213 219 221 225 233 241
168 181 184 182 186 184 190 188 190 191 188 187 185 184 185 186 189 189 191 188 184 181 183 178 176 177 181 185 186 172 145 162 201 200 192 189 191 201 203 202 201 201 194 194 196 199 204 209 207 207 217 227 229 233 224 205 211 205 207 216 233 235 248
168 181 184 189 189 191 190 190 188 189 190 189 188 187 187 187 187 190 191 190 187 185 184 175 179 179 184 187 180 164 174 183 188 188 187 188 196 201 197 196 196 195 200 200 196 199 203 207 209 211 220 227 230 231 233 224 217 220 214 211 216 227 252
170 176 190 193 197 198 198 198 197 193 187 189 190 190 188 189 191 193 192 189 188 189 185 181 183 184 184 182 177 176 174 160 200 192 187 192 199 200 195 201 198 200 206 209 210 211 215 209 213 220 226 224 225 230 231 221 212 218 215 212 227 241 245
163 169 171 185 195 204 208 206 206 203 202 197 193 193 191 192 194 189 194 191 192 194 185 183 182 177 163 164 160 170 173 166 206 202 195 195 197 194 195 196 198 202 207 211 216 220 215 218 220 222 223 224 223 223 222 217 217 215 202 184 202 217 232
166 166 183 188 188 195 200 202 201 201 203 202 198 195 199 197 192 197 197 194 199 183 176 181 174 165 172 180 167 148 149 199 220 205 197 196 193 188 186 192 196 201 202 212 215 210 214 224 225 228 224 223 223 227 226 219 202 189 188 199 214 231 232
158 169 181 188 191 191 199 199 199 204 201 198 199 198 197 193 195 200 198 192 185 185 190 183 173 175 169 148 146 162 173 202 215 202 203 202 191 183 188 193 199 201 203 209 211 210 218 221 225 227 223 221 222 227 224 210 171 175 188 198 219 235 230
166 173 179 184 188 196 197 194 193 189 192 203 205 205 201 204 207 200 187 189 195 198 178 159 159 145 130 125 126 147 208 219 198 207 210 207 193 188 196 200 203 202 205 204 205 207 211 216 220 224 222 223 240 260 230 203 181 187 188 200 218 231 226
189 178 179 186 180 197 192 194 190 185 192 194 193 200 204 208 202 192 199 187 134 68 88 99 91 82 93 127 151 174 214 209 191 215 214 205 197 195 201 203 202 205 205 204 211 213 213 219 219 229 72 53 20 288 259 218 194 191 193 206 223 236 247
175 187 180 201 186 183 196 191 184 192 186 184 189 191 199 204 199 195 132 89 98 108 107 115 117 123 123 101 81 235 244 214 194 204 209 204 198 201 204 204 209 213 199 204 213 217 213 211 68 55 133 180 208 225 224 216 204 199 203 209 218 221 240
181 144 140 102 40 132 152 180 189 155 135 123 97 110 75 66 76 89 110 130 138 137 145 147 144 148 151 155 156 203 217 218 213 210 210 201 200 203 207 208 209 210 194 200 215 211 79 91 129 193 182 185 210 205 197 205 198 196 202 204 207 202 219
138 129 131 133 132 124 139 131 133 131 130 140 144 105 96 107 112 118 130 140 146 150 149 140 156 168 159 164 176 178 200 232 213 212 211 203 204 203 206 208 209 210 175 150 104 129 141 121 179 245 191 164 74 263 197 188 205 197 195 199 198 195 199
95 123 112 112 122 134 122 117 107 108 122 132 142 143 133 129 127 131 137 150 156 155 164 177 184 174 172 167 172 173 196 224 222 220 213 208 208 206 208 208 203 175 122 134 135 118 127 152 130 234 223 119 166 214 210 177 186 195 188 174 198 187 166
109 162 144 132 125 116 115 127 134 147 154 151 152 146 144 142 143 153 159 165 173 184 187 185 171 162 169 174 183 188 197 215 217 217 216 209 207 205 199 177 167 132 134 127 125 132 123 121 182 206 176 194 190 203 200 182 185 156 153 149 146 174 173
33 67 71 51 85 118 109 105 116 137 147 157 158 155 154 154 159 164 167 172 187 197 193 175 175 170 171 186 193 189 202 214 211 209 210 211 194 145 113 120 129 138 128 121 115 96 73 299 143 167 189 189 183 199 206 44 80 123 127 136 157 168 162
120 316 93 85 106 90 131 126 146 158 160 174 174 169 169 164 161 167 172 184 199 192 177 164 168 180 187 191 192 193 203 204 205 205 194 151 131 123 124 128 117 114 123 133 122 119 157 217 145 147 156 168 213 253 107 88 108 120 127 145 147 141 128
42 82 73 54 187 169 161 138 151 153 173 169 178 180 173 162 166 173 178 198 197 177 169 136 137 142 128 91 339 231 222 194 155 117 124 129 123 125 125 118 125 126 139 132 147 142 126 130 144 143 147 172 230 258 338 109 101 120 129 137 143 144 140
28 26 51 84 94 18 294 179 163 160 167 182 175 184 183 180 171 175 190 215 171 177 177 163 129 94 95 126 198 209 102 63 78 106 116 131 134 127 118 98 107 118 186 181 186 103 127 157 163 161 175 184 193 204 174 133 131 127 128 127 128 90 57
27 71 97 90 93 106 110 325 203 148 153 146 93 37 32 34 33 36 13 7 351 330 79 126 114 107 118 144 140 81 73 108 90 71 67 77 89 117 140 154 167 157 120 103 104 130 145 167 162 158 169 183 194 190 188 171 145 164 150 124 100 56 31
337 238 145 133 145 127 108 128 121 92 79 66 63 77 76 74 76 75 65 53 38 11 21 89 78 86 110 117 127 135 141 94 96 85 71 63 72 79 87 103 107 120 128 131 132 140 146 156 158 166 180 183 197 175 183 169 181 178 156 70 46 19 10
259 318 311 171 142 125 125 132 126 103 92 92 101 103 98 96 90 89 84 74 71 77 45 63 89 86 91 113 111 115 115 105 104 99 88 45 42 60 62 57 98 113 125 141 145 144 160 170 174 176 184 198 187 175 188 205 222 230 187 215 89 3 355
319 341 351 24 15 130 148 137 103 100 102 109 114 108 107 102 91 77 68 62 59 52 48 37 30 4 18 45 92 116 91 87 95 110 112 99 75 58 39 22 40 100 86 22 360 199 164 164 173 182 194 179 176 176 198 215 226 227 180 166 119 87 39
281 358 88 106 101 100 103 114 123 116 108 104 103 102 100 96 95 92 92 87 76 67 52 22 7 11 5 354 26 43 84 133 135 133 123 120 126 110 75 52 47 19 65 98 22 40 71 127 173 183 150 114 58 207 201 208 204 143 155 159 152 100 227
183 168 172 145 122 115 109 107 113 112 110 115 109 105 103 100 104 102 94 83 78 90 88 42 339 18 104 220 234 202 203 178 157 158 137 139 133 126 121 118 45 40 36 34 34 44 44 54 75 116 147 143 135 69 58 98 120 137 158 158 275 276 273
237 211 167 144 140 135 125 124 127 130 134 138 128 125 122 115 115 117 122 144 162 143 143 155 197 217 201 195 191 198 188 169 157 154 147 147 143 139 142 134 124 63 28 36 26 31 56 69 76 89 101 105 112 125 63 59 59 102 43 346 330 299 298